Regional Weather Roundup
Issued by NWS

Home | Current Version | Previous Version | Graphics & Text | Print | Product List | Glossary On
Versions: 1 2 3 4 5 6 7 8 9 10 11 12 13 14 15 16 17 18 19 20 21 22 23 24 25 26 27 28 29 30 31 32 33 34 35 36 37 38 39 40 41 42 43 44 45 46 47 48 49 50
000
ASUS43 KLMK 300602
RWRKY
KENTUCKY REGIONAL WEATHER ROUNDUP
NATIONAL WEATHER SERVICE LOUISVILLE KY
200 AM EDT SAT MAY 30 2015

NOTE "FAIR" INDICATES FEW OR NO CLOUDS BELOW 12,000 FEET
WITH NO SIGNIFICANT WEATHER AND/OR OBSTRUCTIONS TO VISIBILITY.

KYZ001>023-026-027-061>063-070>075-300700-
WESTERN AND SOUTH CENTRAL KENTUCKY

CITY           SKY/WX    TMP DP  RH WIND       PRES   REMARKS
PADUCAH        PTCLDY    75  68  78 SE6       30.00S
HENDERSON      CLEAR     72  64  78 S3        30.02S
OWENSBORO      CLEAR     71  69  93 SE6       30.04F
HOPKINSVILLE   CLEAR     72  67  84 S8        30.05F
BOWLING GREEN  CLEAR     71  66  84 S5        30.07F
GLASGOW        NOT AVBL
$$

KYZ024-025-028>034-038-045-046-053-300700-
NORTH CENTRAL KENTUCKY

CITY           SKY/WX    TMP DP  RH WIND       PRES   REMARKS
LOUISVILLE/SDF MOCLDY    73  67  81 S7        30.05F
LOUISVILLE/LOU MOCLDY    72  67  84 S7        30.06F
FORT KNOX      MOCLDY    70  66  88 S6        30.06F
$$

KYZ035>037-039>044-047>052-055>060-089>105-300700-
NORTHEAST KENTUCKY

CITY           SKY/WX    TMP DP  RH WIND       PRES   REMARKS
LEXINGTON      CLEAR     70  64  81 S8        30.11S
COVINGTON      PTCLDY    70  65  84 S7        30.07S
FRANKFORT      CLEAR     70  63  78 S5        30.08F
$$

KYZ054-064>069-076>088-106>120-300700-
SOUTHEAST KENTUCKY

CITY           SKY/WX    TMP DP  RH WIND       PRES   REMARKS
JACKSON        PTCLDY    68  62  81 CALM      30.15F
LONDON         PTCLDY    67  62  84 CALM      30.14F
SOMERSET       NOT AVBL
MIDDLESBORO    PTCLDY    65  65  99 CALM      30.17S
MONTICELLO     CLOUDY    70  68  93 S5        30.15F
$$



USA.gov is the U.S. government's official web portal to all federal, state and local government web resources and services.